This is the latest recevied weather packets stored in our database for station/object VE7KNL-13. If no packets are shown the sender has not sent any weather packets the latest 10 day(s).
| Time | Temp. | Humidity | Pressure | Rain* | Wind** | Luminosity | Snow |
|---|---|---|---|---|---|---|---|
| 1778078458 | 9.44° C | 65% | 1011.3 hPa | 0 mm | - | - | - |
| 1778077817 | 8.89° C | 66% | 1011.6 hPa | 0 mm | - | - | - |
| 1778077217 | 7.78° C | 71% | 1011.6 hPa | 0 mm | - | - | - |
| 1778071217 | 3.33° C | 86% | 1011 hPa | 0 mm | - | - | - |
| 1778067637 | 3.89° C | 83% | 1010.9 hPa | 0 mm | - | - | - |
| 1778062816 | 4.44° C | 80% | 1010.6 hPa | 0 mm | - | - | - |
| 1778060416 | 5° C | 79% | 1010.6 hPa | 0 mm | - | - | - |
| 1778056216 | 5.56° C | 76% | 1010.4 hPa | 0 mm | - | - | - |
| 1778053218 | 7.22° C | 72% | 1009.9 hPa | 0 mm | - | - | - |
| 1778052618 | 7.22° C | 72% | 1010 hPa | 0 mm | - | - | - |
| 1778050217 | 7.78° C | 69% | 1009.7 hPa | 0 mm | - | - | - |
| 1778046017 | 10° C | 65% | 1008.9 hPa | 0 mm | - | - | - |
| 1778036417 | 17.78° C | 44% | 1006.5 hPa | 0 mm | - | - | - |
| 1778035217 | 19.44° C | 36% | 1006.4 hPa | 0 mm | - | - | - |
| 1778031017 | 23.89° C | 19% | 1006.1 hPa | 0 mm | - | - | - |
| 1778028616 | 24.44° C | 21% | 1006.2 hPa | 0 mm | - | - | - |
| 1778026216 | 25° C | 22% | 1006.3 hPa | 0 mm | - | - | - |
| 1778025057 | 25.56° C | 20% | 1006.5 hPa | 0 mm | - | - | - |
| 1778024416 | 26.11° C | 21% | 1006.7 hPa | 0 mm | - | - | - |
| 1778020216 | 25° C | 20% | 1007.4 hPa | 0 mm | - | - | - |
| 1778019016 | 25° C | 20% | 1007.6 hPa | 0 mm | - | - | - |
| 1778017837 | 24.44° C | 22% | 1007.8 hPa | 0 mm | - | - | - |
| 1778011818 | 23.33° C | 29% | 1009.1 hPa | 0 mm | - | - | - |
| 1778010618 | 22.78° C | 29% | 1009.4 hPa | 0 mm | - | - | - |
| 1778007018 | 22.22° C | 29% | 1009.8 hPa | 0 mm | - | - | - |
* Rain latest hour (hover to see other rain measurements)
** Current wind speed in m/s (hover to see current wind gust speed)